Huron, SD

12:18 PM CDT on July 22, 2017 (GMT -0500)
Huron Regional

Weather History for KHON - November, 2013

Change the Weather History Date:

Thursday, November 28, 2013

  Actual Average Record
Temperature  
Mean Temperature 22 °F 26 °F  
Max Temperature 30 °F 35 °F 61 °F (1901)
Min Temperature 14 °F 16 °F -28 °F (1887)
Degree Days  
Heating Degree Days 43 39  
Month to date heating degree days 924 890  
Since 1 July heating degree days 1563 1620  
Cooling Degree Days 0 0  
Month to date cooling degree days 0 0  
Year to date cooling degree days 848 742  
Moisture  
Dew Point 15 °F    
Average Humidity 71    
Maximum Humidity 88    
Minimum Humidity 53    
Precipitation  
Precipitation 0.00 in 0.02 in 2.37 in (2005)
Month to date precipitation 0.17 0.83  
Year to date precipitation 24.19 22.34  
Snow  
Snow 0.00 in 0.20 in 14.80 in (2005)
Month to date snowfall 1.6 6.6  
Since 1 July snowfall 2.5 7.7  
Since 1 September snowfall 2.5 7.7  
Snow Depth 0.00 in    
Sea Level Pressure  
Sea Level Pressure 30.39 in    
Wind  
Wind Speed 9 mph (North)    
Max Wind Speed 24 mph    
Max Gust Speed 33 mph    
Visibility 10 miles    
Events      
T = Trace of Precipitation, MM = Missing Value Source: NWS Daily Summary

Daily Weather History Graph

Daily Weather History Graph

Search for Another Location

Airport or City:

Trip Planner

Search our weather history database for the weather conditions in past years. The results will help you decide how hot, cold, wet, or windy it might be!

Date:

Astronomy

Nov. 28, 2013 Rise Set
Actual Time 7:45 AM CST 4:56 PM CST
Civil Twilight 7:13 AM CST 5:28 PM CST
Nautical Twilight 6:37 AM CST 6:04 PM CST
Astronomical Twilight 6:02 AM CST 6:39 PM CST
Moon 2:39 AM CST (11/28) 2:15 PM CST (11/28)
Length of Visible Light 10h 15m
Length of Day
9h 10m
Waning Crescent, 22% of the Moon is Illuminated
Nov 28
Waning Crescent
Dec 2
New
Dec 9
First Quarter
Dec 17
Full
Dec 25
Last Quarter

Hourly Weather History & Observations

Time (CST) Temp. Windchill Dew Point Humidity Pressure Visibility Wind Dir Wind Speed Gust Speed Precip Events Conditions
12:55 AM 25.0 °F 10.9 °F 18.0 °F 75% 30.19 in 10.0 mi NNW 19.6 mph 26.5 mph N/A   Overcast
1:55 AM 26.1 °F 10.7 °F 18.0 °F 71% 30.21 in 10.0 mi NNW 25.3 mph 33.4 mph N/A   Overcast
2:55 AM 24.1 °F 13.7 °F 16.0 °F 71% 30.24 in 10.0 mi North 10.4 mph - N/A   Overcast
3:55 AM 25.0 °F 15.5 °F 17.1 °F 72% 30.26 in 10.0 mi NNW 9.2 mph - N/A   Overcast
4:24 AM 26.6 °F 17.5 °F 17.6 °F 69% 30.23 in 10.0 mi NW 9.2 mph - N/A   Overcast
4:55 AM 26.1 °F 16.8 °F 18.0 °F 71% 30.29 in 10.0 mi NW 9.2 mph - N/A   Overcast
5:55 AM 27.0 °F 16.1 °F 18.0 °F 69% 30.33 in 10.0 mi NNW 12.7 mph - N/A   Overcast
6:55 AM 26.1 °F 17.6 °F 19.0 °F 75% 30.35 in 10.0 mi NNE 8.1 mph - N/A   Overcast
7:55 AM 26.1 °F 16.8 °F 18.0 °F 71% 30.37 in 10.0 mi North 9.2 mph - N/A   Overcast
8:55 AM 26.1 °F 17.6 °F 18.0 °F 71% 30.41 in 10.0 mi NNW 8.1 mph - N/A   Overcast
9:55 AM 27.0 °F 18.7 °F 17.1 °F 66% 30.43 in 10.0 mi North 8.1 mph - N/A   Overcast
10:55 AM 27.0 °F 17.3 °F 14.0 °F 58% 30.45 in 10.0 mi NNW 10.4 mph - N/A   Overcast
11:16 AM 28.4 °F 19.1 °F 14.0 °F 55% 30.39 in 10.0 mi NW 10.4 mph - N/A   Overcast
11:55 AM 28.0 °F 18.1 °F 14.0 °F 56% 30.45 in 10.0 mi NNW 11.5 mph - N/A   Overcast
12:26 PM 28.4 °F 19.7 °F 14.0 °F 55% 30.40 in 10.0 mi North 9.2 mph - N/A   Overcast
12:55 PM 28.0 °F 20.8 °F 14.0 °F 56% 30.45 in 10.0 mi NW 6.9 mph - N/A   Overcast
1:55 PM 28.0 °F 22.8 °F 15.1 °F 58% 30.45 in 10.0 mi North 4.6 mph - N/A   Overcast
2:55 PM 30.0 °F 21.1 °F 15.1 °F 54% 30.44 in 10.0 mi North 10.4 mph - N/A   Overcast
3:13 PM 28.4 °F 24.6 °F 15.8 °F 59% 30.39 in 10.0 mi NNE 3.5 mph - N/A   Scattered Clouds
3:55 PM 28.0 °F 21.7 °F 16.0 °F 61% 30.45 in 10.0 mi NE 5.8 mph - N/A   Mostly Cloudy
4:07 PM 26.6 °F 19.1 °F 15.8 °F 64% 30.40 in 10.0 mi NE 6.9 mph - N/A   Scattered Clouds
4:55 PM 23.0 °F 17.0 °F 14.0 °F 68% 30.45 in 10.0 mi East 4.6 mph - N/A   Clear
5:55 PM 18.0 °F 12.7 °F 12.9 °F 81% 30.47 in 10.0 mi East 3.5 mph - N/A   Clear
6:55 PM 18.0 °F 11.1 °F 12.9 °F 81% 30.48 in 9.0 mi East 4.6 mph - N/A   Clear
7:55 PM 16.0 °F 8.8 °F 12.0 °F 84% 30.48 in 10.0 mi ESE 4.6 mph - N/A   Clear
8:55 PM 17.1 °F 10.0 °F 12.0 °F 81% 30.47 in 10.0 mi ESE 4.6 mph - N/A   Clear
9:55 PM 16.0 °F 7.4 °F 10.9 °F 81% 30.47 in 10.0 mi SE 5.8 mph - N/A   Clear
10:55 PM 15.1 °F 5.2 °F 10.0 °F 80% 30.47 in 10.0 mi SSE 6.9 mph - N/A   Clear
11:55 PM 14.0 °F 3.9 °F 9.0 °F 80% 30.46 in 10.0 mi SE 6.9 mph - N/A   Clear